カタログに戻る

STARLINK-3904

運用中通信VLEO
NORAD 52464·PAYLOAD·🇺🇸 United States

打ち上げ May 6, 2022 から Cape Canaveral Space Force Station

Loading…

次のパス (今後24時間)

TLE

最新Source: CelesTrak SupGP

元期: Sep 14, 2026, 21:43 UTC

1 52464C 22049P   26257.90534722  .00033948  00000+0  97137-3 0  2575
2 52464  53.1573 279.7585 0001234  92.5403 287.1651 15.35378745    12

AllMySatでSTARLINK-3904をリアルタイム追跡

Download on the App Store